GW1622 Weather Reports


Display with metric or nautical units.
time (UTC)temp
F
wind
direction
speed
MPH
gust
MPH
rain 1hr
in
rain 24hr
in
rain mn
in
humidity
%
barometer
mb
20260902183047 75 94 2.0 8.0 0.00 0.00 0.00 71 1017.1
20260902182522 74 88 2.0 8.0 0.00 0.00 0.00 74 1017.2
20260902182017 74 130 2.0 7.0 0.00 0.00 0.00 74 1017.2
20260902181544 73 73 1.0 7.0 0.00 0.00 0.00 74 1017.2
20260902181020 74 106 2.0 7.0 0.00 0.00 0.00 73 1017.3
20260902180522 74 82 2.0 7.0 0.00 0.00 0.00 72 1017.1
20260902180040 75 350 1.0 7.0 0.00 0.00 0.00 72 1017.2
20260902175518 74 183 2.0 7.0 0.00 0.00 0.00 73 1017.1
20260902175022 74 82 1.0 7.0 0.00 0.00 0.00 73 1017.1
20260902174543 74 17 2.0 7.0 0.00 0.00 0.00 73 1017.0
20260902174021 74 96 2.0 5.0 0.00 0.00 0.00 72 1017.0
20260902173519 74 0 1.0 4.0 0.00 0.00 0.00 74 1016.9
20260902173041 74 63 1.0 7.0 0.00 0.00 0.00 74 1016.9
20260902172523 74 77 2.0 7.0 0.00 0.00 0.00 74 1016.9
20260902172024 73 61 1.0 4.0 0.00 0.00 0.00 75 1017.0
20260902171551 73 90 1.0 4.0 0.00 0.00 0.00 75 1016.8
20260902171016 73 65 1.0 5.0 0.00 0.00 0.00 75 1016.8
20260902170523 72 115 1.0 7.0 0.00 0.00 0.00 77 1016.8
20260902170038 72 120 2.0 7.0 0.00 0.00 0.00 76 1016.9
20260902165520 73 158 1.0 5.0 0.00 0.00 0.00 76 1016.9
20260902165023 72 138 1.0 6.0 0.00 0.00 0.00 77 1016.9
20260902164543 72 118 1.0 6.0 0.00 0.00 0.00 77 1017.0
20260902164021 71 84 1.0 6.0 0.00 0.00 0.00 78 1016.9
20260902163517 71 89 2.0 6.0 0.00 0.00 0.00 79 1016.9
20260902163042 71 139 2.0 6.0 0.00 0.00 0.00 79 1016.9
20260902162519 71 155 1.0 5.0 0.00 0.00 0.00 80 1017.0
20260902162020 70 148 1.0 5.0 0.00 0.00 0.00 81 1017.0
20260902161540 70 71 2.0 5.0 0.00 0.00 0.00 80 1017.0
20260902161022 70 0 1.0 4.0 0.00 0.00 0.00 81 1017.1
20260902160520 70 153 0.0 4.0 0.00 0.00 0.00 81 1017.2
20260902160040 70 0 1.0 5.0 0.00 0.00 0.00 82 1017.0
20260902155518 70 98 0.0 5.0 0.00 0.00 0.00 84 1017.0
20260902155019 69 26 2.0 5.0 0.00 0.00 0.00 86 1016.9
20260902154541 68 27 1.0 3.0 0.00 0.00 0.00 87 1017.0
20260902154020 68 25 1.0 3.0 0.00 0.00 0.00 87 1017.0
20260902153521 67 19 1.0 3.0 0.00 0.00 0.00 89 1017.0
20260902153050 67 5 1.0 3.0 0.00 0.00 0.00 89 1017.0
20260902152522 66 22 1.0 3.0 0.00 0.00 0.00 90 1017.1
20260902152018 66 10 0.0 2.0 0.00 0.00 0.00 90 1016.9
20260902151535 65 10 1.0 4.0 0.00 0.00 0.00 91 1017.0
20260902151023 65 360 1.0 4.0 0.00 0.00 0.00 91 1017.0
20260902150517 65 13 1.0 3.0 0.00 0.00 0.00 92 1017.0
20260902150041 64 0 1.0 3.0 0.00 0.00 0.00 92 1017.0
20260902145520 64 5 1.0 3.0 0.00 0.00 0.00 92 1017.0
20260902145018 64 28 1.0 3.0 0.00 0.00 0.00 92 1017.0
20260902144541 64 0 0.0 1.0 0.00 0.00 0.00 92 1016.9
20260902144020 64 212 0.0 1.0 0.00 0.00 0.00 93 1016.7
20260902143520 63 0 0.0 1.0 0.00 0.00 0.00 93 1016.8
20260902143037 63 0 0.0 1.0 0.00 0.00 0.00 93 1016.8
20260902142518 63 0 0.0 2.0 0.00 0.00 0.00 93 1016.8
20260902142018 63 0 0.0 2.0 0.00 0.00 0.00 93 1016.8
20260902141538 62 0 0.0 1.0 0.00 0.00 0.00 93 1016.7
20260902141020 63 0 0.0 3.0 0.00 0.00 0.00 93 1016.8
20260902140518 63 0 0.0 3.0 0.00 0.00 0.00 93 1016.8
20260902140038 63 0 0.0 3.0 0.00 0.00 0.00 93 1016.6
20260902135521 63 0 0.0 4.0 0.00 0.00 0.00 93 1016.5
20260902135016 63 0 0.0 4.0 0.00 0.00 0.00 93 1016.5
20260902134549 62 0 0.0 2.0 0.00 0.00 0.00 93 1016.4
20260902134021 62 0 0.0 1.0 0.00 0.00 0.00 93 1016.3
20260902133518 62 0 0.0 1.0 0.00 0.00 0.00 93 1016.3
20260902133041 62 0 0.0 0.0 0.00 0.00 0.00 93 1016.3
20260902132523 62 0 0.0 0.0 0.00 0.00 0.00 93 1016.2
20260902132017 61 0 0.0 0.0 0.00 0.00 0.00 93 1016.3
20260902131544 62 0 0.0 0.0 0.00 0.00 0.00 93 1016.3
20260902131017 62 0 0.0 0.0 0.00 0.00 0.00 93 1016.2
20260902130518 62 0 0.0 0.0 0.00 0.00 0.00 93 1016.1
20260902130043 62 0 0.0 0.0 0.00 0.00 0.00 93 1016.0
20260902125526 62 0 0.0 1.0 0.00 0.00 0.00 93 1015.9
20260902125021 63 0 0.0 1.0 0.00 0.00 0.00 93 1015.9
20260902124537 62 0 0.0 0.0 0.00 0.00 0.00 93 1016.0
20260902124020 62 0 0.0 0.0 0.00 0.00 0.00 93 1016.0
20260902123520 62 0 0.0 0.0 0.00 0.00 0.00 93 1016.0
20260902123050 62 0 0.0 0.0 0.00 0.00 0.00 93 1016.1
20260902122520 62 0 0.0 1.0 0.00 0.00 0.00 93 1016.0
20260902122018 62 0 0.0 1.0 0.00 0.00 0.00 93 1016.0
20260902121538 62 0 0.0 0.0 0.00 0.00 0.00 93 1016.0
20260902121025 62 0 0.0 0.0 0.00 0.00 0.00 93 1015.9
20260902120521 62 0 0.0 0.0 0.00 0.00 0.00 93 1015.9
20260902120041 62 0 0.0 0.0 0.00 0.00 0.00 93 1015.9
20260902115518 62 0 0.0 0.0 0.00 0.00 0.00 93 1016.1
20260902115020 62 0 0.0 0.0 0.00 0.00 0.00 93 1016.0
20260902114542 62 0 0.0 1.0 0.00 0.00 0.00 92 1016.0
20260902114019 62 0 0.0 1.0 0.00 0.00 0.00 92 1016.0
20260902113519 62 0 0.0 1.0 0.00 0.00 0.00 92 1016.0
20260902113038 63 0 0.0 1.0 0.00 0.00 0.00 92 1016.1
20260902112517 63 0 0.0 0.0 0.00 0.00 0.00 92 1016.0
20260902112022 63 0 0.0 1.0 0.00 0.00 0.00 92 1016.1
20260902111537 63 0 0.0 1.0 0.00 0.00 0.00 92 1016.1
20260902111020 63 0 0.0 1.0 0.00 0.00 0.00 92 1016.0
20260902110523 63 0 0.0 0.0 0.00 0.00 0.00 92 1016.0
20260902110044 63 0 0.0 0.0 0.00 0.00 0.00 92 1016.0
20260902105518 63 0 0.0 0.0 0.00 0.00 0.00 92 1016.0
20260902105020 63 0 0.0 1.0 0.00 0.00 0.00 92 1016.1
20260902104538 63 0 0.0 1.0 0.00 0.00 0.00 92 1016.1
20260902104018 63 0 0.0 0.0 0.00 0.00 0.00 92 1016.1
20260902103517 63 0 0.0 0.0 0.00 0.00 0.00 92 1016.1
20260902103038 63 0 0.0 0.0 0.00 0.00 0.00 92 1016.2
20260902102521 63 0 0.0 0.0 0.00 0.00 0.00 92 1016.3
20260902102022 63 0 0.0 1.0 0.00 0.00 0.00 92 1016.2
20260902101537 63 0 0.0 1.0 0.00 0.00 0.00 92 1016.2
20260902101017 63 0 0.0 0.0 0.00 0.00 0.00 91 1016.2
20260902100518 64 0 0.0 1.0 0.00 0.00 0.00 92 1016.2
20260902100038 63 0 0.0 1.0 0.00 0.00 0.00 91 1016.3
20260902095520 63 0 0.0 0.0 0.00 0.00 0.00 91 1016.4
20260902095019 63 0 0.0 0.0 0.00 0.00 0.00 91 1016.4
20260902094537 64 0 0.0 0.0 0.00 0.00 0.00 91 1016.4
20260902094018 64 0 0.0 0.0 0.00 0.00 0.00 91 1016.5
20260902093518 64 0 0.0 0.0 0.00 0.00 0.00 91 1016.4
20260902093038 64 0 0.0 0.0 0.00 0.00 0.00 91 1016.4
20260902092518 64 0 0.0 0.0 0.00 0.00 0.00 91 1016.5
20260902092019 64 0 0.0 0.0 0.00 0.00 0.00 91 1016.5
20260902091540 64 0 0.0 0.0 0.00 0.00 0.00 91 1016.5
20260902091020 64 0 0.0 0.0 0.00 0.00 0.00 91 1016.6
20260902090519 64 0 0.0 0.0 0.00 0.00 0.00 91 1016.7
20260902090038 64 0 0.0 0.0 0.00 0.00 0.00 91 1016.7
20260902085519 64 0 0.0 1.0 0.00 0.00 0.00 91 1016.7
20260902085018 64 0 0.0 4.0 0.00 0.00 0.00 91 1016.8
20260902084539 64 0 0.0 4.0 0.00 0.00 0.00 90 1016.7
20260902084018 65 352 1.0 4.0 0.00 0.00 0.00 90 1016.8
20260902083521 65 0 0.0 1.0 0.00 0.00 0.00 91 1016.7
20260902083037 64 0 0.0 0.0 0.00 0.00 0.00 91 1016.7
20260902082517 64 0 0.0 0.0 0.00 0.00 0.00 90 1016.7
20260902082017 64 0 0.0 0.0 0.00 0.00 0.00 90 1016.6
20260902081537 65 0 0.0 0.0 0.00 0.00 0.00 90 1016.8
20260902081018 65 0 0.0 1.0 0.00 0.00 0.00 90 1016.6
20260902080522 65 0 0.0 1.0 0.00 0.00 0.00 90 1016.6
20260902080037 64 0 0.0 1.0 0.00 0.00 0.00 90 1016.7
20260902075518 64 0 0.0 0.0 0.00 0.00 0.00 90 1016.6
20260902075018 64 0 0.0 0.0 0.00 0.00 0.00 89 1016.5
20260902074542 65 0 0.0 0.0 0.00 0.00 0.00 89 1016.6
20260902074019 65 0 0.0 1.0 0.00 0.00 0.00 89 1016.6
20260902073518 65 0 0.0 1.0 0.00 0.00 0.00 89 1016.6
20260902073036 65 0 0.0 1.0 0.00 0.00 0.00 89 1016.6
20260902072518 65 0 0.0 0.0 0.00 0.00 0.00 88 1016.6
20260902072017 66 0 0.0 1.0 0.00 0.00 0.00 89 1016.5
20260902071539 66 0 0.0 1.0 0.00 0.00 0.00 89 1016.5
20260902071019 66 0 0.0 1.0 0.00 0.00 0.00 89 1016.5
20260902070516 66 0 0.0 1.0 0.00 0.00 0.00 88 1016.4
20260902070035 66 0 0.0 1.0 0.00 0.00 0.00 88 1016.4
20260902065520 66 0 0.0 1.0 0.00 0.00 0.00 88 1016.4
20260902065026 66 0 0.0 1.0 0.00 0.00 0.00 88 1016.3
20260902064544 66 0 0.0 1.0 0.00 0.00 0.00 88 1016.3
20260902064020 66 0 0.0 1.0 0.00 0.00 0.00 88 1016.3
20260902063520 66 0 0.0 0.0 0.00 0.00 0.00 88 1016.3
20260902063043 66 0 0.0 0.0 0.00 0.00 0.00 88 1016.2
20260902062521 66 0 0.0 1.0 0.00 0.00 0.00 88 1016.1
20260902062019 67 0 0.0 1.0 0.00 0.00 0.00 88 1016.1
20260902061557 66 0 0.0 0.0 0.00 0.00 0.00 87 1016.2
20260902061021 67 0 0.0 0.0 0.00 0.00 0.00 87 1016.2
20260902060517 67 0 0.0 0.0 0.00 0.00 0.00 87 1016.0
20260902060055 67 0 0.0 0.0 0.00 0.00 0.00 87 1016.0
20260902055524 67 0 0.0 0.0 0.00 0.00 0.00 87 1016.2
20260902055020 67 0 0.0 0.0 0.00 0.00 0.00 87 1016.2
20260902054605 67 0 0.0 1.0 0.00 0.00 0.00 87 1016.1
20260902054024 67 0 0.0 1.0 0.00 0.00 0.00 87 1016.2
20260902053519 67 0 0.0 1.0 0.00 0.00 0.00 87 1016.2
20260902053057 67 0 0.0 1.0 0.00 0.00 0.00 87 1016.2
20260902052521 67 0 0.0 0.0 0.00 0.00 0.00 87 1016.2
20260902052020 67 0 0.0 0.0 0.00 0.00 0.00 87 1016.2
20260902051540 67 0 0.0 0.0 0.00 0.00 0.00 87 1016.2
20260902051022 67 0 0.0 0.0 0.00 0.00 0.00 87 1016.4
20260902050518 68 0 0.0 0.0 0.00 0.00 0.00 87 1016.3
20260902050041 67 0 0.0 1.0 0.00 0.00 0.00 87 1016.3
20260902045519 68 0 0.0 1.0 0.00 0.00 0.00 87 1016.2
20260902045018 68 0 0.0 1.0 0.00 0.00 0.00 87 1016.3
20260902044543 67 0 0.0 0.0 0.00 0.00 0.00 87 1016.2
20260902044019 67 0 0.0 0.0 0.00 0.00 0.00 87 1016.2
20260902043521 67 0 0.0 0.0 0.00 0.00 0.00 87 1016.1
20260902043044 67 0 0.0 0.0 0.00 0.00 0.00 88 1016.1
20260902042521 67 0 0.0 0.0 0.00 0.00 0.00 88 1015.9
20260902042018 67 0 0.0 0.0 0.00 0.00 0.00 87 1015.8
20260902041541 67 0 0.0 0.0 0.00 0.00 0.00 88 1015.7
20260902041020 67 0 0.0 0.0 0.00 0.00 0.00 88 1015.7
20260902040520 67 0 0.0 1.0 0.00 0.00 0.00 88 1015.7
20260902040048 67 0 0.0 1.0 0.00 0.00 0.00 88 1015.6
20260902035517 67 0 0.0 1.0 0.00 0.00 0.00 88 1015.5
20260902035019 67 0 0.0 2.0 0.00 0.00 0.00 88 1015.3
20260902034551 67 0 0.0 2.0 0.00 0.00 0.00 88 1015.1
20260902034020 67 0 0.0 0.0 0.00 0.00 0.00 88 1015.1
20260902033518 67 0 0.0 0.0 0.00 0.00 0.00 87 1015.1
20260902033035 68 0 0.0 0.0 0.00 0.00 0.00 87 1014.9
20260902032520 68 0 0.0 0.0 0.00 0.00 0.00 87 1014.8
20260902032025 68 0 0.0 0.0 0.00 0.00 0.00 87 1014.6
20260902031543 68 0 0.0 0.0 0.00 0.00 0.00 87 1014.6
20260902031020 68 0 0.0 0.0 0.00 0.00 0.00 87 1014.5
20260902030520 68 0 0.0 0.0 0.00 0.00 0.00 87 1014.4
20260902030041 69 0 0.0 0.0 0.00 0.00 0.00 87 1014.4
20260902025516 69 0 0.0 2.0 0.00 0.00 0.00 86 1014.5
20260902025019 69 0 0.0 3.0 0.00 0.00 0.00 86 1014.6
20260902024539 69 0 0.0 3.0 0.00 0.00 0.00 86 1014.5
20260902024018 70 0 0.0 3.0 0.00 0.00 0.00 86 1014.4
20260902023520 70 13 0.0 3.0 0.00 0.00 0.00 86 1014.4
20260902023041 70 5 0.0 2.0 0.00 0.00 0.00 85 1014.4
20260902022518 70 0 0.0 2.0 0.00 0.00 0.00 85 1014.4
20260902022018 70 0 0.0 2.0 0.00 0.00 0.00 85 1014.4
20260902021536 70 0 0.0 2.0 0.00 0.00 0.00 84 1014.4
20260902021018 70 0 0.0 1.0 0.00 0.00 0.00 84 1014.3
20260902020517 69 0 0.0 3.0 0.00 0.00 0.00 83 1014.4
20260902020038 69 0 0.0 3.0 0.00 0.00 0.00 83 1014.4
20260902015522 70 0 0.0 3.0 0.00 0.00 0.00 83 1014.5
20260902015020 70 0 0.0 3.0 0.00 0.00 0.00 82 1014.6
20260902014537 70 24 0.0 3.0 0.00 0.00 0.00 82 1014.6
20260902014020 70 0 0.0 2.0 0.00 0.00 0.00 82 1014.6
20260902013520 70 350 0.0 3.0 0.00 0.00 0.00 82 1014.6
20260902013038 70 18 0.0 3.0 0.00 0.00 0.00 81 1014.6
20260902012523 70 0 0.0 2.0 0.00 0.00 0.00 81 1014.5
20260902012020 70 320 0.0 3.0 0.00 0.00 0.00 81 1014.4
20260902011540 70 0 0.0 4.0 0.00 0.00 0.00 81 1014.3
20260902011021 70 0 1.0 5.0 0.00 0.00 0.00 81 1014.4
20260902010518 71 17 0.0 5.0 0.00 0.00 0.00 80 1014.5
20260902010037 71 0 1.0 5.0 0.00 0.00 0.00 80 1014.5
20260902005521 71 0 0.0 3.0 0.00 0.00 0.00 80 1014.5
20260902005018 71 53 1.0 3.0 0.00 0.00 0.00 79 1014.5
20260902004536 71 348 0.0 3.0 0.00 0.00 0.00 79 1014.5
20260902004021 71 0 1.0 4.0 0.00 0.00 0.00 79 1014.5
20260902003519 71 0 0.0 4.0 0.00 0.00 0.00 79 1014.6
20260902003045 71 330 1.0 4.0 0.00 0.00 0.00 79 1014.6
20260902002518 71 28 1.0 7.0 0.00 0.00 0.00 79 1014.6
20260902002019 72 360 1.0 7.0 0.00 0.00 0.00 78 1014.6
20260902001558 72 0 1.0 3.0 0.00 0.00 0.00 78 1014.5
20260902001021 72 215 1.0 4.0 0.00 0.00 0.00 78 1014.7
20260902000520 72 24 1.0 4.0 0.00 0.00 0.00 78 1014.6
20260902000043 73 19 1.0 5.0 0.00 0.00 0.00 78 1014.6
20260901235518 73 36 1.0 8.0 0.00 0.00 0.00 77 1014.8
20260901235018 73 63 1.0 8.0 0.00 0.00 0.00 77 1014.8
20260901234541 73 13 1.0 9.0 0.00 0.00 0.00 77 1014.8
20260901234025 73 40 3.0 9.0 0.00 0.00 0.00 77 1015.0
20260901233522 73 352 2.0 7.0 0.00 0.00 0.00 76 1015.0
20260901233040 74 36 3.0 6.0 0.00 0.00 0.00 76 1015.0
20260901232519 74 0 2.0 8.0 0.00 0.00 0.00 76 1015.0
20260901232021 74 30 2.0 8.0 0.00 0.00 0.00 75 1015.1
20260901231540 74 38 2.0 8.0 0.00 0.00 0.00 75 1015.0
20260901231020 74 348 1.0 8.0 0.00 0.00 0.00 75 1015.0
20260901230519 74 27 3.0 8.0 0.00 0.00 0.00 75 1015.1
20260901230041 75 5 1.0 7.0 0.00 0.00 0.00 74 1015.1
20260901225518 75 13 2.0 7.0 0.00 0.00 0.00 74 1015.0
20260901225025 76 338 1.0 4.0 0.00 0.00 0.00 73 1015.1
20260901224542 76 19 2.0 9.0 0.00 0.00 0.00 73 1015.3
20260901224023 75 13 2.0 9.0 0.00 0.00 0.00 74 1015.1
20260901223521 75 302 2.0 10.0 0.00 0.00 0.00 74 1015.1
20260901223048 75 352 4.0 10.0 0.00 0.00 0.00 74 1015.2
20260901222520 76 305 2.0 8.0 0.00 0.00 0.00 73 1015.3
20260901222018 77 14 1.0 8.0 0.00 0.00 0.00 72 1015.2
20260901221555 78 271 1.0 8.0 0.00 0.00 0.00 71 1015.3
20260901221020 77 243 1.0 11.0 0.00 0.00 0.00 73 1015.3
20260901220518 77 302 2.0 11.0 0.00 0.00 0.00 71 1015.3
20260901220052 77 261 2.0 11.0 0.00 0.00 0.00 72 1015.4
20260901215520 77 345 2.0 11.0 0.00 0.00 0.00 71 1015.5
20260901215021 78 28 1.0 6.0 0.00 0.00 0.00 71 1015.4
20260901214540 78 350 2.0 8.0 0.00 0.00 0.00 70 1015.4
20260901214018 78 157 0.0 11.0 0.00 0.00 0.00 71 1015.4
20260901213519 78 12 1.0 11.0 0.00 0.00 0.00 70 1015.4
20260901213041 77 352 3.0 9.0 0.00 0.00 0.00 70 1015.4
20260901212518 79 0 0.0 6.0 0.00 0.00 0.00 70 1015.4
20260901212025 79 228 2.0 8.0 0.00 0.00 0.00 69 1015.4
20260901211540 80 5 2.0 8.0 0.00 0.00 0.00 70 1015.5
20260901211024 78 38 1.0 6.0 0.00 0.00 0.00 71 1015.5
20260901210524 78 46 1.0 9.0 0.00 0.00 0.00 71 1015.5
20260901210043 78 330 3.0 9.0 0.00 0.00 0.00 69 1015.4
20260901205523 80 52 2.0 9.0 0.00 0.00 0.00 67 1015.5
20260901205025 79 72 2.0 7.0 0.00 0.00 0.00 71 1015.4
20260901204542 78 17 2.0 8.0 0.00 0.00 0.00 71 1015.5
20260901204019 78 360 2.0 8.0 0.00 0.00 0.00 70 1015.5
20260901203518 77 89 2.0 8.0 0.00 0.00 0.00 71 1015.5
20260901203047 78 19 2.0 10.0 0.00 0.00 0.00 71 1015.6
20260901202523 78 49 2.0 10.0 0.00 0.00 0.00 72 1015.6
20260901202019 79 352 3.0 10.0 0.00 0.00 0.00 70 1015.7
20260901201541 79 273 2.0 6.0 0.00 0.00 0.00 70 1015.6
20260901201019 79 96 2.0 9.0 0.00 0.00 0.00 69 1015.8
20260901200517 79 242 2.0 9.0 0.00 0.00 0.00 72 1015.8
20260901200042 78 63 2.0 9.0 0.00 0.00 0.00 72 1015.8
20260901195520 77 77 3.0 9.0 0.00 0.00 0.00 72 1015.8
20260901195021 78 36 2.0 8.0 0.00 0.00 0.00 72 1015.9
20260901194538 78 49 2.0 9.0 0.00 0.00 0.00 70 1016.1
20260901194018 78 70 3.0 9.0 0.00 0.00 0.00 70 1016.1
20260901193518 77 22 3.0 9.0 0.00 0.00 0.00 71 1016.1
20260901193043 77 333 2.0 8.0 0.00 0.00 0.00 71 1016.1
20260901192519 79 25 2.0 7.0 0.00 0.00 0.00 69 1016.1
20260901192020 77 25 2.0 7.0 0.00 0.00 0.00 73 1016.2
20260901191552 77 19 2.0 8.0 0.00 0.00 0.00 70 1016.2
20260901191019 77 196 3.0 8.0 0.00 0.00 0.00 72 1016.2
20260901190521 77 55 2.0 8.0 0.00 0.00 0.00 72 1016.3
20260901190040 78 190 2.0 9.0 0.00 0.00 0.00 72 1016.3
20260901185523 77 22 2.0 9.0 0.00 0.00 0.00 72 1016.2
20260901185021 77 327 3.0 9.0 0.00 0.00 0.00 71 1016.3
20260901184546 76 167 3.0 8.0 0.00 0.00 0.00 73 1016.3
20260901184018 76 23 3.0 8.0 0.00 0.00 0.00 74 1016.5
20260901183518 76 34 2.0 8.0 0.00 0.00 0.00 74 1016.4